Location: Fort Frances
(48.6170°N, 93.4170°W)
Time: 14:09:23
(UTC-05:00)

Daily predictions for brighter satellites

Satellite Brightness Start Highest point End
(mag) Time Altitude Azimuth Time Altitude Azimuth Time Altitude Azimuth
Cosmos 1825 Rocket 4.3 21:40:21 10° SSE 21:44:23 35° E 21:48:26 10° NNE
PSLV R/B 3.2 21:42:11 10° SSE 21:45:17 82° ENE 21:48:25 10° NNW
Cosmos 1812 Rocket 3.8 21:42:53 10° NNW 21:47:17 76° W 21:51:42 10° S
Tsikada Rocket 4.1 21:43:25 10° S 21:49:49 86° E 21:56:14 10° N
deb Chang Zheng 4 4.2 21:53:06 10° N 21:57:29 63° WNW 22:01:47 10° SSW
ARGOS 3.5 21:56:03 10° SE 22:01:19 55° ENE 22:06:37 10° N
H-2A R/B 3.6 21:59:35 10° SSW 22:03:31 35° W 22:07:35 10° NNW
Cosmos 1766 4.0 22:03:33 10° N 22:07:21 40° ENE 22:10:50 12° SE
Cosmos 2369 Rocket 2.3 22:02:29 10° NNW 22:08:10 77° WSW 22:13:47 10° SSE
Cosmos 1992 Rocket 4.5 22:04:24 10° NNW 22:09:33 60° WSW 22:14:40 10° S
Cosmos 2084 3.9 22:07:42 10° NW 22:11:41 51° NE 22:15:41 11° ESE
USA 81 4.1 22:06:25 10° N 22:11:45 84° E 22:17:02 10° S
MetOp-B 4.3 22:07:16 10° S 22:12:38 77° WSW 22:18:01 10° NNW
UNK 4.2 22:07:17 10° NNE 22:12:43 73° ESE 22:18:25 10° S
SL-8 R/B 3.7 22:09:48 10° W 22:14:40 84° S 22:19:31 10° ESE
Lacrosse 4 Rocket 1.8 22:12:19 10° S 22:16:07 40° ESE 22:19:59 10° NE
Cosmos 1634 Rocket 4.0 22:13:10 10° N 22:19:23 86° W 22:25:34 10° S
USA 245 4.1 22:14:05 10° SSE 22:19:51 90° WSW 22:24:36 10° NNW
SeaSat 1 3.1 22:18:45 10° S 22:23:33 51° WSW 22:28:23 10° NW
NOAA 11 4.2 22:20:27 11° SSE 22:25:37 78° ENE 22:31:05 10° NNW
SL-08 RB Rocket 3.7 22:25:26 13° SSE 22:29:30 77° ENE 22:34:02 10° N
Cosmos 1953 Rocket 3.5 22:27:17 10° S 22:31:42 79° E 22:36:11 10° NNE
YAOGAN 6 3.2 22:29:09 10° S 22:32:49 55° W 22:36:31 10° NNW
CZ-4B R/B 3.5 22:28:02 10° NNE 22:33:09 89° ESE 22:38:22 10° SSW
Cosmos-2242 3.4 22:30:41 10° N 22:35:01 53° ENE 22:38:15 17° SSE
Cosmos 1805 4.1 22:33:19 10° N 22:37:00 36° ENE 22:39:29 18° SE
Cosmos 1190 Rocket 4.0 22:32:05 10° SSW 22:37:24 85° ESE 22:42:45 10° NNE
H-2A R/B 2.2 22:36:00 16° SE 22:39:55 58° ENE 22:44:57 10° N
Cosmos 2279 Rocket 4.0 22:34:00 10° N 22:40:18 82° E 22:45:52 14° S
ISS -3.4 22:38:56 10° WSW 22:42:12 86° SSE 22:45:29 10° ENE
CZ-4C R/B 3.4 22:41:12 16° SSE 22:44:32 86° WSW 22:48:32 10° NNW
CZ-4C R/B 4.1 22:45:40 10° ESE 22:45:59 10° ESE 22:46:19 10° E
Atlas Centaur 2 4.2 22:40:51 10° SW 22:46:02 20° S 22:49:12 16° SSE
SPOT 1/Viking Rocket 4.2 22:44:02 10° S 22:49:03 51° W 22:54:05 10° NNW
COSMOS 2406 4.0 22:45:47 16° SSE 22:49:37 34° ESE 22:54:43 10° NE
SAR-Lupe-2 3.6 22:49:00 21° SSE 22:51:15 71° ENE 22:54:51 10° N
Cosmos 1140 Rocket 4.1 22:47:56 17° SSE 22:51:25 37° ESE 22:56:13 10° NE
Cosmos 676 Rocket 4.0 22:49:10 10° SSW 22:54:28 74° ESE 22:59:49 10° NNE
CZ-4 R/B 4.0 22:49:38 10° NNE 22:54:40 83° WNW 22:59:41 10° SSW
ATLAS 3B R/B 2.9 22:49:28 10° SW 22:57:11 84° SE 23:04:41 10° NE
Cosmos 1953 2.3 22:53:17 10° N 22:57:17 73° ENE 22:59:43 23° SSE
Landsat 7 3.9 22:54:04 17° S 22:57:43 79° WSW 23:02:31 10° NNW
Lacrosse 5 rocket 3.6 22:57:32 10° WNW 23:00:58 26° N 23:04:33 10° NE
Cosmos 1943 Rocket 2.3 22:59:38 10° NNW 23:05:09 67° WSW 23:09:02 20° SSE
Cosmos 1758 Rocket 4.1 23:01:13 10° SSW 23:05:33 59° WNW 23:09:52 10° N
Spot 4 3.8 23:04:05 22° SSE 23:07:14 77° ENE 23:12:02 10° NNW
CARTOSAT-1 3.6 23:05:16 21° S 23:08:05 82° WSW 23:12:28 10° NNW
DMSP B5D2-2 4.2 23:03:46 10° NNE 23:08:59 58° E 23:12:38 20° S
Kosmos-1675 4.3 23:06:53 12° SSW 23:09:54 67° ESE 23:22:39 10° NE
USA 234 3.8 23:06:30 19° SSE 23:11:02 46° SW 23:17:19 10° WNW
Cosmos 1943 4.0 23:07:07 10° SW 23:12:40 53° NW 23:18:16 10° NNE
Terra 1.9 23:10:21 21° S 23:13:32 79° WSW 23:18:20 10° NNW
Cosmos 1707 4.3 23:12:54 19° ESE 23:13:57 21° E 23:16:55 10° NE
Cosmos 1346 Rocket 4.2 23:11:15 10° SW 23:14:52 35° WNW 23:18:33 10° N
Cosmos 1656 Rocket 3.7 23:10:20 10° NNW 23:16:04 78° ENE 23:19:41 23° SE
Lacrosse 5 3.4 23:16:40 10° NW 23:21:21 36° NNE 23:26:01 10° E
SL-27 R/B 2.2 23:19:49 23° SSW 23:21:47 88° WNW 23:25:10 10° NNE
Cosmos 407 Rocket 4.3 23:18:09 10° SW 23:23:17 53° WNW 23:28:24 10° NNE
Cosmos 1842 3.7 23:20:16 16° SSW 23:23:18 59° WNW 23:27:12 10° N
COSMOS 2487 3.5 23:23:16 27° ESE 23:23:45 28° ESE 23:26:54 10° NE
COSMOS 2455 4.4 23:20:26 10° WSW 23:25:59 37° NW 23:31:34 10° NNE
ALOS 2 4.4 23:27:55 14° ESE 23:30:22 22° ENE 23:33:46 10° NNE
Cosmos 1842 Rocket 3.6 23:28:05 10° NNW 23:32:29 78° W 23:34:46 28° S
Cosmos 1818 4.2 23:27:43 10° NNW 23:33:05 50° NE 23:37:07 17° ESE
Cosmos 1733 3.5 23:34:06 10° N 23:37:56 54° ENE 23:39:17 34° SE
USA 238 DEB 3.7 23:32:36 10° SSW 23:39:39 72° SE 23:46:42 10° NE
USA 238 3.7 23:32:43 10° SSW 23:39:45 72° SE 23:46:47 10° NE
Aureole 2 4.3 23:39:04 10° NNW 23:42:04 59° WSW 23:42:36 48° SSW
IGS 5A 4.4 23:41:59 22° SSW 23:44:12 40° W 23:48:10 10° NNW
CZ-4B R/B 3.4 23:44:24 18° E 23:45:50 23° ENE 23:48:48 10° NNE
Cosmos 2208 Rocket 4.5 23:40:51 10° NNW 23:45:52 51° WSW 23:48:37 25° S
Cosmos 1092 Rocket 4.0 23:47:07 23° S 23:51:17 87° E 23:57:36 10° N
Lacrosse 4 Rocket 3.5 23:51:27 10° WSW 23:54:58 27° NW 23:58:33 10° NNE
